Powrót do katalogu

STARLINK-5474

AktywnyŁącznośćVLEO
NORAD 55665·PAYLOAD·🇺🇸 United States

Wystrzelony Feb 17, 2023 z Vandenberg Space Force Base

Loading…

Następne Przeloty (najbliższe 24 godziny)

TLE

ŚwieżeSource: CelesTrak SupGP

Epoka: Sep 14, 2026, 21:25 UTC

1 55665C 23021AP  26257.89284722  .00020831  00000+0  17458-2 0  2576
2 55665  70.0022  47.3677 0002660 274.7267 183.0151 14.98318250    14

Śledź STARLINK-5474 w czasie rzeczywistym z AllMySat

Download on the App Store